Showing default

SHIYAN 27D, 63602

Orbit data source: Space-Track

SHIYAN 27D, 63602 is a payload satellite owned by CAST (CN) in SSO that was launched on Fri, 18 Apr 2025 UTC via a CHANG ZHENG 6A launch vehicle from the Taiyaun Space Center, China (TSC). Payload-class satellites include a variety of spacecraft equipped with specific instruments for various scientific and technological missions. These include communications satellites like Starlink; space stations such as the ISS; scientific satellites like the Hubble; Earth observation satellites from companies like Planet Labs, Umbra, and HawkEye 360; GPS; miniature CubeSats for education and research; and military/defense satellites.

Loading next visibility...
Identifier
63602, 2025-078D
Orbit
SSO
Country
Flag of CNCN / PRC
Related business
Manufacturer
CAST
Mission
Operational Defense Radar Imaging
Bus & Motor
SW27, Unknown motor
Mass
300 kg wet, ~300 kg dry
Launch date (UTC)
2025-04-18 (8 months ago)
Launch vehicle
CHANG ZHENG 6A
Launch site
Taiyaun Space Center, China (TSC)
Object type
Payload
Rocket body
Debris
Shape & HBR
Box + 1 Pan, 2.0 m
Radar Cross Section
13.200 m², Large (>1 m²)

Expand to show TLE details & history
Last TLE update: 15 hours ago

TLE from 15 hours ago
0 SHIYAN 27D
1 63602U 25078D   25348.33940589  .00000035  00000-0  11053-3 0  9993
2 63602  99.6954 353.3017 0000767  92.3209 267.8017 13.57227717 32455
Epoch: 2025-12-14T08:08Z
TLE epoch observation values (Epoch: 2025-12-14T08:08:44.668Z)
Latitude
-0.00006°
Longitude
147.86185°
Altitude
1,048.602 km
Speed
7.328 km/s
True Right ascension
23h 33m 12s
True Declination
0° 00' 00"
Sunlit
Object was in daylight at epoch
Visualization orbit readout
Latitude
Unknown
Longitude
Unknown
Altitude
Unknown
Speed
Unknown
Apparent Right ascension
Unknown
Apparent Declination
Unknown
Sunlit
N/A
Visualization observer readout
Local Sidereal Time
21:56:03
Azimuth
Unknown
Elevation
Unknown
Doppler factor
Unknown
Orbital elements
Apogee altitude
1,043.645 km
Perigee altitude
1,042.507 km
Semi-major axis
7,421.213 km
Eccentricity
0.00008
Inclination
99.6954°
RAAN
353.3017°
Arg. of periapsis
92.3209°
True anomaly
267.79292°
Mean anomaly
267.8017°
Eccentric anomaly
267.79731°
Mean motion
3.39493 °/min
Orbital period
106.04 mins
BSTAR
0.00011053
Loading maneuver chart data...
Computing Atmospheric mass density...
Loading historical data...
Loading historical data...
Loading historical data...
Loading historical data...
Loading historical data...
Loading historical data...
Loading historical data...

Documentation

Showing up to 5 results
|